Location: Αθήνα
(37.9839°N, 23.7283°E)
Time: 15:12:39
(UTC+03:00)

EO-79 - Visible Passes

Search period start: 18 June 2024 00:00
Search period end: 28 June 2024 00:00
Orbit: 559 x 576 km, 98.0° (Epoch: 17 June)

Date Brightness Start Highest point End Pass type
(mag) Time Alt. Az. Time Alt. Az. Time Alt. Az.
18 Jun ? 04:00:07 10° NE 04:03:29 26° E 04:06:33 11° SSE visible
19 Jun ? 04:01:11 10° NE 04:04:35 26° E 04:07:39 12° SSE visible
20 Jun ? 04:02:14 10° NE 04:05:40 27° E 04:08:45 12° SSE visible
21 Jun ? 04:03:16 10° NE 04:06:44 28° E 04:09:49 12° SSE visible
22 Jun ? 04:04:18 10° NE 04:07:48 28° E 04:10:53 12° SSE visible
23 Jun ? 04:05:19 10° NE 04:08:50 29° E 04:11:56 12° SSE visible
24 Jun ? 04:06:20 10° NE 04:09:53 30° E 04:12:58 12° SSE visible
25 Jun ? 04:07:20 10° NE 04:10:54 30° E 04:13:59 13° SSE visible
26 Jun ? 04:08:19 10° NE 04:11:54 31° E 04:15:00 13° SSE visible
27 Jun ? 04:09:18 10° NNE 04:12:55 32° E 04:15:59 13° SSE visible
